Location: Unspecified
(41.1637°N, 24.2901°E)
Time: 15:15:08
(UTC+01:00)

ISS - Pass Details

Date: 13 March 2026
Orbit: 417 x 426 km, 51.6° (Epoch: 16 March)

Event Time Altitude Azimuth Distance (km) Brightness Sun altitude
Rises 18:08:18 0° 229° (SW) 2,371 0.8 -8.6°
Reaches altitude 10° 18:10:24 10° 228° (SW) 1,508 -0.3 -9.0°
Maximum altitude 18:13:47 77° 143° (SE) 438 -3.8 -9.6°
Drops below altitude 10° 18:17:10 10° 57° (ENE) 1,513 -1.4 -10.2°
Enters shadow 18:17:15 10° 57° (ENE) 1,541 -1.4 -10.2°
